Mosul, Iraq

5:23 PM +03 on April 30, 2017 (GMT +0300)
Mosul

Weather History for ORBM - September, 2013

Change the Weather History Date:

Tuesday, September 10, 2013

  Actual Average Record
Temperature  
Mean Temperature 86 °F -  
Max Temperature 99 °F - - ()
Min Temperature 73 °F - - ()
Cooling Degree Days 21    
Growing Degree Days 36 (Base 50)    
Moisture  
Dew Point 48 °F    
Average Humidity 28    
Maximum Humidity 47    
Minimum Humidity 6    
Precipitation  
Precipitation 0.00 in - - ()
Sea Level Pressure  
Sea Level Pressure 29.81 in    
Wind  
Wind Speed 2 mph ()    
Max Wind Speed 7 mph    
Max Gust Speed -    
Visibility 4.8 miles    
Events      
T = Trace of Precipitation, MM = Missing Value Source: Averaged Metar Reports

Daily Weather History Graph

Daily Weather History Graph

Search for Another Location

Airport or City:

Trip Planner

Search our weather history database for the weather conditions in past years. The results will help you decide how hot, cold, wet, or windy it might be!

Date:

Astronomy

Sep. 10, 2013 Rise Set
Actual Time 5:45 AM +03 6:22 PM +03
Civil Twilight 5:19 AM +03 6:48 PM +03
Nautical Twilight 4:49 AM +03 7:18 PM +03
Astronomical Twilight 4:17 AM +03 7:49 PM +03
Moon 10:38 AM +03 (9/10) 9:17 PM +03 (9/10)
Length of Visible Light 13h 28m
Length of Day
12h 36m
Waxing Crescent, 25% of the Moon is Illuminated
Sep 10
Waxing Crescent
Sep 12
First Quarter
Sep 19
Full
Sep 27
Last Quarter
Oct 5
New

Hourly Weather History & Observations

Time (+03) Temp. Heat Index Dew Point Humidity Pressure Visibility Wind Dir Wind Speed Gust Speed Precip Events Conditions
12:00 AM 84.2 °F - 50.0 °F 30% 29.80 in 4.3 mi Calm Calm - N/A   Clear
1:00 AM 82.4 °F - 50.0 °F 32% 29.80 in 4.3 mi NW 6.9 mph - N/A   Clear
2:00 AM 82.4 °F - 48.2 °F 30% 29.80 in 4.3 mi WNW 4.6 mph - N/A   Clear
3:00 AM 73 °F - 47 °F 28% 29.82 in 6 mi Calm Calm - -  
3:00 AM 80.6 °F - 50.0 °F 34% 29.80 in 4.3 mi Calm Calm - N/A   Clear
4:00 AM 77.0 °F - 53.6 °F 44% 29.83 in 4.3 mi Calm Calm - N/A   Clear
5:00 AM 75.2 °F - 51.8 °F 44% 29.83 in 4.3 mi Calm Calm - N/A   Clear
7:00 AM 73.4 °F - 51.8 °F 47% 29.86 in 4.3 mi Calm Calm - N/A   Clear
8:00 AM 75.2 °F - 51.8 °F 44% 29.86 in 4.3 mi Calm Calm - N/A   Clear
10:00 AM 87.8 °F 85.7 °F 53.6 °F 31% 29.86 in 5.0 mi NNE 4.6 mph - N/A   Unknown
11:00 AM 91.4 °F - 51.8 °F 26% 29.86 in 5.0 mi WNW 5.8 mph - N/A   Unknown
12:00 PM 93.2 °F - 46.4 °F 20% 29.86 in - WNW 2.3 mph - N/A   Clear
1:00 PM 95.0 °F - 42.8 °F 16% 29.83 in - Calm Calm - N/A   Clear
2:00 PM 96.8 °F - 39.2 °F 14% 29.83 in - NNE 3.5 mph - N/A   Clear
3:00 PM 99 °F - 39 °F 6% 29.76 in 5 mi West 4.5 mph - -   Widespread Dust
4:00 PM 96.8 °F - 44.6 °F 17% 29.77 in - NNW 4.6 mph - N/A   Clear
5:00 PM 95.0 °F - 41.0 °F 15% 29.77 in - NNW 6.9 mph - N/A   Clear
6:00 PM 96 °F - 42 °F 8% 29.74 in 6 mi NNW 2.3 mph - -  
7:00 PM 93.2 °F - 50.0 °F 23% 29.77 in 4.3 mi NNE 3.5 mph - N/A   Clear
8:00 PM 87.8 °F 85.7 °F 53.6 °F 31% 29.80 in 5.0 mi Calm Calm - N/A   Clear
9:00 PM 86.0 °F 84.5 °F 55.4 °F 35% 29.80 in 5.0 mi Calm Calm - N/A   Clear
10:00 PM 80.6 °F - 51.8 °F 37% 29.80 in 5.0 mi Calm Calm - N/A   Clear
11:00 PM 82.4 °F - 41.0 °F 23% 29.80 in 5.0 mi NNW 4.6 mph - N/A   Clear